Flag for U.S.A. Weather past 2 weeks in Dayton, Ohio, U.S.A.

Now
21 °F

Passing clouds.


Feels Like: 9 °F
Forecast: 21 / 37 °F
Wind: 12 mph from Northeast

Location: Dayton / Wright-Patterson Air Force Base

Current Time: Mar 28, 2015 at 9:09:48 AM

Latest Report: Mar 28, 2015 at 8:58 AM


Visibility: 10 mi

Pressure: 30.28 "Hg

Humidity: 56%

Dew point: 8 °F

Location of DaytonLocation

Historic Weather in Dayton — Graph

°F

Dayton temperature yesterday

Maximum temperature yesterday: 36 °F (at 12:58 AM)
Minimum temperature yesterday: 23 °F (at 11:58 PM)
Average temperature yesterday: 31 °F

Past Weeks' High & Low Weather Summary

 TemperatureHumidityPressure
High71 °F (Mar 16, 5:58 PM)100% (Mar 13, 3:58 PM)30.39 "Hg (Mar 13, 3:58 PM)
Low19 °F (Mar 28, 5:58 AM)24% (Mar 18, 4:58 PM)29.81 "Hg (Mar 17, 4:58 AM)
Average43 °F66%30.12 "Hg
* Reported Mar 13 7:58 AM — Mar 28 7:58 AM, Dayton, Weather by CustomWeather, © 2015

Note: Actual official high and low records may vary slightly from our data, if they occured in-between our weather recording intervals... More about our weather records

Advertising

Dayton weather history for previous 24 hours

 ConditionsComfort  
Time TempWeatherWind HumidityBarometerVisibility
7:58 AM
Sat, Mar 28
20 °FClear.8 mph80%30.25 "Hg10 mi
6:58 AM19 °FClear.5 mph81%30.22 "Hg10 mi
5:58 AM19 °FClear.5 mph80%30.19 "Hg10 mi
4:58 AM20 °FClear.6 mph73%30.17 "Hg10 mi
3:58 AM21 °FClear.8 mph69%30.16 "Hg10 mi
2:58 AM22 °FClear.7 mph66%30.16 "Hg10 mi
1:58 AM24 °FOvercast.9 mph63%30.15 "Hg10 mi
12:58 AM24 °FClear.6 mph66%30.15 "Hg10 mi
11:58 PM
Fri, Mar 27
23 °FPassing clouds.6 mph66%30.14 "Hg10 mi
10:58 PM27 °FPassing clouds.6 mph60%30.13 "Hg10 mi
9:58 PM27 °FPassing clouds.7 mph61%30.11 "Hg10 mi
8:58 PM28 °FOvercast.7 mph53%30.09 "Hg10 mi
7:58 PM29 °FPartly sunny.9 mph49%30.08 "Hg10 mi
6:58 PM28 °FOvercast.9 mph54%30.06 "Hg10 mi
5:58 PM29 °FOvercast.15 mph55%30.06 "Hg10 mi
4:58 PM30 °FOvercast.15 mph52%30.04 "Hg10 mi
3:58 PM31 °FOvercast.13 mph47%30.04 "Hg10 mi
2:58 PM31 °FLight snow. Overcast.16 mph48%30.04 "Hg10 mi
1:58 PM33 °FOvercast.12 mph50%30.04 "Hg10 mi
12:58 PM33 °FPartly sunny.15 mph55%30.03 "Hg10 mi
11:58 AM31 °FLight snow. Mostly cloudy.15 mph61%30.04 "Hg10 mi
10:58 AM32 °FLight snow. Cloudy.14 mph75%30.03 "Hg10 mi
10:48 AM32 °FLight snow. Cloudy.14 mph75%30.02 "Hg10 mi
9:58 AM32 °FPartly sunny.14 mph75%30.01 "Hg10 mi
Weather by CustomWeather, © 2015

See weather overviewHow to use our weather pages